"2010-10-19 00:00:00",259501,2.205,291.3,9.16,1.157,8.72,102.8145,6.484,7.38,66.37,0,109.9,13.46,7.26,253.3
"2010-10-19 00:00:30",259502,3.942,298.9,6.636,1.166,10.93,102.8145,6.484,7.482,66.5,0,109.9,13.45,7.26,260.9
"2010-10-19 00:01:00",259503,4.426,305.1,6.491,1.018,11.85,102.8145,6.484,7.665,66.79,0,109.9,13.45,7.26,267.1
"2010-10-19 00:01:30",259504,4.348,300.9,5.126,1.118,11.01,102.8145,6.484,7.583,66.65,0,109.9,13.45,7.26,262.9
"2010-10-19 00:02:00",259505,3.003,296,8.58,1.296,8,102.8145,6.484,7.402,66.3,0,109.9,13.45,7.26,258.0
"2010-10-19 00:02:30",259506,2.112,294.5,2.569,0.086,6.217,102.8145,6.484,7.348,66.25,0,109.9,13.48,7.26,256.5
"2010-10-19 00:03:00",259507,1.933,292.4,2.381,0.073,6.29,102.8145,6.484,7.351,66.21,0,109.9,13.48,7.26,254.4
"2010-10-19 00:03:30",259508,1.926,293.1,3.311,0.109,6.775,102.8145,6.484,7.362,66.15,0,109.9,13.48,7.26,255.1
"2010-10-19 00:04:00",259509,3.637,299.9,4.744,1.254,10.27,102.8145,6.484,7.57,66.32,0,109.9,13.45,7.26,261.9
"2010-10-19 00:04:30",259510,4.069,305.9,6.777,1.224,11.25,102.8145,6.484,7.643,66.38,0,109.9,13.45,7.26,267.9
"2010-10-19 00:05:00",259511,4.071,304.4,6.658,1.205,10.64,102.8145,6.484,7.607,66.27,0,109.9,13.45,7.26,266.4
"2010-10-19 00:05:30",259512,3.489,304.5,8.54,1.347,9.44,102.8145,6.484,7.595,66.16,0,109.9,13.45,7.26,266.5
"2010-10-19 00:06:00",259513,2.823,301.8,6.171,1.044,7.827,102.8193,6.496,7.536,65.96,0,109.9,13.46,7.27,263.8
"2010-10-19 00:06:30",259514,2.264,297,1.628,0.079,6.397,102.8377,6.543,7.408,65.72,0,109.9,13.49,7.32,259.0
"2010-10-19 00:07:00",259515,2.201,298.8,2.09,0.074,6.757,102.847,6.567,7.414,65.67,0,109.9,13.5,7.34,260.8
"2010-10-19 00:07:30",259516,3.327,302.4,6.164,1.331,9.32,102.8484,6.57,7.542,65.66,0,109.9,13.46,7.35,264.4
"2010-10-19 00:08:00",259517,3.349,305.4,6.685,1.364,9.88,102.8487,6.571,7.608,65.65,0,109.9,13.46,7.35,267.4
"2010-10-19 00:08:30",259518,4.319,309.8,7.522,1.199,11.49,102.8484,6.57,7.699,65.7,0,109.9,13.46,7.35,271.8
"2010-10-19 00:09:00",259519,4.615,309,6.304,1.117,11.2,102.8499,6.574,7.66,65.58,0,109.9,13.46,7.35,271.0
"2010-10-19 00:09:30",259520,3.441,303.4,6.328,1.293,8.59,102.849,6.572,7.605,65.49,0,109.9,13.46,7.35,265.4
"2010-10-19 00:10:00",259521,3.343,297.4,5.219,0.93,7.063,102.849,6.572,7.462,65.34,0,109.9,13.46,7.35,259.4
"2010-10-19 00:10:30",259522,3.429,295.6,4.242,1.086,7.421,102.8496,6.573,7.456,65.29,0,109.9,13.46,7.35,257.6
"2010-10-19 00:11:00",259523,3.792,298.5,6.398,1.28,9,102.8487,6.571,7.598,65.46,0,109.9,13.46,7.35,260.5
"2010-10-19 00:11:30",259524,4.244,303.5,7.424,1.274,10.02,102.8493,6.573,7.633,65.48,0,109.9,13.46,7.35,265.5
"2010-10-19 00:12:00",259525,4.53,303.8,7.124,1.142,11.26,102.8493,6.573,7.681,65.41,0,109.9,13.46,7.35,265.8
"2010-10-19 00:12:30",259526,3.679,298.5,6.43,1.281,9.91,102.8505,6.575,7.741,65.35,0,109.9,13.46,7.35,260.5
"2010-10-19 00:13:00",259527,3.498,296.6,6.542,1.261,8.15,102.8566,6.591,7.487,64.99,0,110,13.46,7.37,258.6
"2010-10-19 00:13:30",259528,2.718,294.1,1.477,0.079,6.861,102.8762,6.641,7.609,65.13,0,109.9,13.5,7.42,256.1
"2010-10-19 00:14:00",259529,2.933,293.1,1.302,0.118,6.777,102.8694,6.624,7.492,65.01,0,109.9,13.5,7.40,255.1
"2010-10-19 00:14:30",259530,3.858,299.3,7.596,1.336,9.29,102.8804,6.652,7.617,64.99,0,109.9,13.46,7.43,261.3
"2010-10-19 00:15:00",259531,3.848,300,6.837,1.358,9.84,102.8855,6.665,7.71,65,0,109.9,13.46,7.44,262.0
"2010-10-19 00:15:30",259532,4.762,301.7,6.011,1.116,11.22,102.8849,6.664,7.744,64.94,0,109.9,13.46,7.44,263.7
"2010-10-19 00:16:00",259533,4.139,295.9,6.846,1.29,10.34,102.8849,6.664,7.796,64.9,0,109.9,13.46,7.44,257.9
"2010-10-19 00:16:30",259534,3.616,292.7,6.294,1.248,8.22,102.8864,6.667,7.532,64.55,0,109.9,13.46,7.44,254.7
"2010-10-19 00:17:00",259535,3.529,293.1,6.311,1.168,8.73,102.8847,6.663,7.68,64.63,0,109.9,13.46,7.44,255.1
"2010-10-19 00:17:30",259536,3.735,293.4,5.873,1.256,8.19,102.8841,6.661,7.556,64.47,0,109.9,13.46,7.44,255.4
"2010-10-19 00:18:00",259537,3.874,292.7,7.179,1.298,9.16,102.8858,6.666,7.672,64.66,0,109.9,13.46,7.44,254.7
"2010-10-19 00:18:30",259538,4.383,293.6,6.643,1.364,9.57,102.8844,6.662,7.715,64.81,0,109.9,13.45,7.44,255.6
"2010-10-19 00:19:00",259539,4.883,297.1,6.099,1.202,11.1,102.8841,6.661,7.778,64.79,0,109.9,13.45,7.44,259.1
"2010-10-19 00:19:30",259540,4.404,295.1,6.656,1.206,10.09,102.8861,6.667,7.808,64.75,0,109.9,13.45,7.44,257.1
"2010-10-19 00:20:00",259541,4.163,291.2,7.535,1.338,8.61,102.8855,6.665,7.578,64.62,0,109.9,13.45,7.44,253.2
"2010-10-19 00:20:30",259542,4.325,293.6,9.88,1.308,9.18,102.8867,6.668,7.707,64.81,0,109.9,13.45,7.44,255.6
"2010-10-19 00:21:00",259543,4.141,290.7,7.033,1.39,9.24,102.8858,6.666,7.676,64.79,0,109.9,13.45,7.44,252.7
"2010-10-19 00:21:30",259544,3.648,290.6,6.604,1.193,9.04,102.8847,6.663,7.711,64.76,0,109.9,13.46,7.44,252.6
"2010-10-19 00:22:00",259545,4.632,295.9,7.161,1.208,10.35,102.8864,6.667,7.724,64.76,0,109.9,13.46,7.44,257.9
"2010-10-19 00:22:30",259546,4.564,295.4,6.448,1.274,10.41,102.8884,6.673,7.801,64.87,0,109.9,13.46,7.45,257.4
"2010-10-19 00:23:00",259547,5.256,299.6,6.074,1.115,9.88,102.8867,6.668,7.626,64.74,0,109.9,13.46,7.44,261.6
"2010-10-19 00:23:30",259548,3.385,289.8,4.072,0.27,7.388,102.8849,6.664,7.631,64.74,0,109.9,13.46,7.44,251.8
"2010-10-19 00:24:00",259549,4.774,295.5,6.838,1.18,10.01,102.8878,6.671,7.624,64.78,0,109.9,13.46,7.45,257.5
"2010-10-19 00:24:30",259550,4.064,286.5,4.588,1.132,9.43,102.8882,6.672,7.689,64.9,0,109.9,13.46,7.45,248.5
"2010-10-19 00:25:00",259551,4.51,285.2,8.8,1.296,8.91,102.8805,6.652,7.66,65.1,0,109.9,13.46,7.43,247.2
"2010-10-19 00:25:30",259552,5.91,295.3,5.392,1.12,11.19,102.8579,6.595,7.786,65.26,0,109.9,13.46,7.37,257.3
"2010-10-19 00:26:00",259553,4.722,281.6,7.791,1.235,10.03,102.8563,6.59,7.705,65.18,0,109.9,13.46,7.37,243.6
"2010-10-19 00:26:30",259554,5.185,282.5,4.908,1.181,10.7,102.8563,6.59,7.69,64.98,0,109.9,13.46,7.37,244.5
"2010-10-19 00:27:00",259555,4.779,280.9,7,1.177,10.07,102.8739,6.635,7.705,64.83,0,109.9,13.46,7.41,242.9
"2010-10-19 00:27:30",259556,4.454,281.7,7.557,1.001,9.29,102.8769,6.643,7.675,65.12,0,109.9,13.46,7.42,243.7
"2010-10-19 00:28:00",259557,4.68,287,10.81,1.297,9.55,102.8597,6.599,7.631,65.04,0,109.9,13.46,7.37,249.0
"2010-10-19 00:28:30",259558,4.567,277.2,4.788,1.193,9.42,102.8646,6.612,7.732,64.94,0,109.9,13.46,7.39,239.2
"2010-10-19 00:29:00",259559,4.933,276.8,6.741,1.29,9.69,102.8952,6.69,7.689,64.65,0,109.9,13.46,7.47,238.8
"2010-10-19 00:29:30",259560,4.453,280.2,5.658,1.313,9.35,102.898,6.697,7.635,64.92,0,109.9,13.46,7.47,242.2
"2010-10-19 00:30:00",259561,4.789,285.5,6.589,1.214,10.06,102.8992,6.7,7.716,64.83,0,109.9,13.46,7.48,247.5
"2010-10-19 00:30:30",259562,4.05,281.3,6.865,1.087,8.82,102.8969,6.694,7.668,64.86,0,109.9,13.46,7.47,243.3
"2010-10-19 00:31:00",259563,4.578,285.9,5.947,1.314,9.4,102.8989,6.699,7.637,65.05,0,109.9,13.46,7.47,247.9
"2010-10-19 00:31:30",259564,4.782,280.2,5.837,1.319,10.08,102.8972,6.695,7.712,64.82,0,109.9,13.46,7.47,242.2
"2010-10-19 00:32:00",259565,5.089,282.3,6.598,1.368,10.67,102.9009,6.704,7.806,64.88,0,109.9,13.46,7.48,244.3
"2010-10-19 00:32:30",259566,5.503,286.5,6.144,1.102,10.33,102.9018,6.707,7.663,65.18,0,109.9,13.46,7.48,248.5
"2010-10-19 00:33:00",259567,3.994,275.7,4.398,0.919,8.25,102.8987,6.699,7.649,65.09,0,109.9,13.46,7.47,237.7
"2010-10-19 00:33:30",259568,5.026,277.3,6.692,1.252,10.35,102.9015,6.706,7.783,64.83,0,109.9,13.46,7.48,239.3
"2010-10-19 00:34:00",259569,4.833,275.2,7.53,1.342,10.43,102.9041,6.713,7.677,64.21,0,109.9,13.46,7.49,237.2
"2010-10-19 00:34:30",259570,3.881,269.4,5.628,1.043,8.42,102.922,6.758,7.642,63.89,0,109.9,13.45,7.53,231.4
"2010-10-19 00:35:00",259571,5.083,275.3,6.472,1.266,10.79,102.9407,6.806,7.763,64.03,0,109.9,13.45,7.58,237.3
"2010-10-19 00:35:30",259572,4.115,269.4,5.534,1.172,8.27,102.9427,6.811,7.69,64.04,0,109.9,13.46,7.59,231.4
"2010-10-19 00:36:00",259573,4.634,269.4,8.55,1.074,11.15,102.9424,6.81,7.795,63.89,0,109.9,13.46,7.59,231.4
"2010-10-19 00:36:30",259574,3.75,261.8,6.785,1.37,9.4,102.9671,6.873,7.726,62.94,0,109.9,13.46,7.65,223.8
"2010-10-19 00:37:00",259575,4.56,261.8,7.824,1.41,9.97,102.979,6.904,7.777,63.32,0,109.9,13.46,7.68,223.8
"2010-10-19 00:37:30",259576,4.446,261,4.983,1.239,10.72,102.9798,6.906,7.86,62.99,0,109.9,13.46,7.68,223.0
"2010-10-19 00:38:00",259577,2.768,252.5,4.94,0.461,8.48,102.9991,6.955,7.842,62.5,0,109.9,13.46,7.73,214.5
"2010-10-19 00:38:30",259578,3.562,253.2,6.63,1.306,9.69,103.0167,7,7.904,62.12,0,109.9,13.46,7.78,215.2
"2010-10-19 00:39:00",259579,4.021,254.9,8.56,1.327,9.82,103.0252,7.022,7.863,62.03,0,109.9,13.46,7.80,216.9
"2010-10-19 00:39:30",259580,4.212,259.2,5.628,1.203,10.58,103.0463,7.076,8.03,61.95,0,109.9,13.46,7.85,221.2
"2010-10-19 00:40:00",259581,3.546,254.3,4.859,1.281,9.4,103.052,7.091,7.965,61.62,0,109.9,13.46,7.87,216.3
"2010-10-19 00:40:30",259582,2.936,249.4,4.754,0.974,9.18,103.0515,7.089,8.03,61.38,0,109.9,13.47,7.87,211.4
"2010-10-19 00:41:00",259583,4.577,258.3,6.136,1.04,11.35,103.0704,7.137,7.995,61.19,0,109.9,13.47,7.91,220.3
"2010-10-19 00:41:30",259584,2.529,250.5,3.461,0.47,8.2,103.0857,7.177,8.03,61.1,0,109.9,13.47,7.95,212.5
"2010-10-19 00:42:00",259585,3.612,259.6,5.707,1.248,9.71,103.0863,7.178,8.04,61.16,0,109.9,13.47,7.96,221.6
"2010-10-19 00:42:30",259586,4.191,260.5,7.878,1.29,10.2,103.0865,7.179,8.05,61.26,0,109.9,13.47,7.96,222.5
"2010-10-19 00:43:00",259587,4.342,262.6,6.635,1.221,10.56,103.0865,7.179,8.06,61.24,0,109.9,13.47,7.96,224.6
"2010-10-19 00:43:30",259588,4.049,260.5,6.484,1.269,10.37,103.0857,7.177,8.14,61.36,0,109.9,13.47,7.95,222.5
"2010-10-19 00:44:00",259589,3.652,257.7,5.62,1.221,9.16,103.086,7.177,8.01,61.03,0,109.9,13.47,7.95,219.7
"2010-10-19 00:44:30",259590,3.758,257.5,5.934,1.193,9.63,103.0868,7.179,8.15,61.13,0,109.9,13.47,7.96,219.5
"2010-10-19 00:45:00",259591,4.222,259.8,5.816,1.189,9.81,103.0868,7.179,8.03,60.98,0,109.9,13.47,7.96,221.8
"2010-10-19 00:45:30",259592,3.286,254.3,1.273,0.538,7.565,103.086,7.177,7.981,61.24,0,109.9,13.47,7.95,216.3
"2010-10-19 00:46:00",259593,4.518,260.7,7.905,1.353,10.32,103.0775,7.156,8.15,61.47,0,109.9,13.47,7.93,222.7
"2010-10-19 00:46:30",259594,5.324,265.3,5.754,1.166,11.47,103.058,7.106,8.24,61.95,0,109.9,13.47,7.88,227.3
"2010-10-19 00:47:00",259595,4.896,264,6.784,1.275,10.72,103.0526,7.092,8.11,62.14,0,109.9,13.47,7.87,226.0
"2010-10-19 00:47:30",259596,4.811,262,6.42,1.288,10.47,103.0512,7.088,8.16,62.46,0,109.9,13.47,7.87,224.0
"2010-10-19 00:48:00",259597,4.758,259.4,7.999,1.265,9.88,103.0351,7.047,7.987,62.27,0,109.9,13.47,7.82,221.4
"2010-10-19 00:48:30",259598,3.433,251.3,0.936,0.054,7.633,103.0291,7.032,8.01,61.91,0,109.9,13.5,7.81,213.3
"2010-10-19 00:49:00",259599,4.312,256.4,6.082,1.197,8.55,103.0433,7.068,7.937,61.85,0,109.9,13.47,7.85,218.4
"2010-10-19 00:49:30",259600,5.645,265.7,6.141,1.21,11.5,103.0283,7.03,8.17,62.57,0,109.9,13.47,7.81,227.7
"2010-10-19 00:50:00",259601,6.176,266.7,5.524,1.005,12.13,103.0238,7.018,8.19,62.72,0,109.9,13.46,7.80,228.7
"2010-10-19 00:50:30",259602,5.735,264.1,6.958,1.25,10.7,103.019,7.006,8.01,62.82,0,109.9,13.46,7.78,226.1
"2010-10-19 00:51:00",259603,5.603,264.2,6.827,1.271,11.19,103.0187,7.005,8.15,63.12,0,109.9,13.46,7.78,226.2
"2010-10-19 00:51:30",259604,5.195,260.7,6.994,1.284,9.49,103.019,7.006,7.912,62.68,0,109.9,13.46,7.78,222.7
"2010-10-19 00:52:00",259605,4.355,250.1,4.19,0.664,8.22,103.0193,7.007,7.936,61.63,0,109.9,13.46,7.78,212.1
"2010-10-19 00:52:30",259606,5.699,255.8,7.117,1.344,11.72,103.0368,7.052,8.15,61.81,0,109.9,13.46,7.83,217.8
"2010-10-19 00:53:00",259607,5.924,264.7,7.136,1.218,11.24,103.0342,7.045,8.04,62.7,0,109.9,13.46,7.82,226.7
"2010-10-19 00:53:30",259608,5.683,263.6,6.253,1.224,11.11,103.0198,7.008,8.17,63.21,0,109.9,13.46,7.78,225.6
"2010-10-19 00:54:00",259609,5.646,262.7,5.798,1.244,10.84,103.019,7.006,8.08,62.65,0,109.9,13.46,7.78,224.7
"2010-10-19 00:54:30",259610,4.583,249.9,7.446,1.08,8.85,103.019,7.006,7.949,62.23,0,109.9,13.46,7.78,211.9
"2010-10-19 00:55:00",259611,3.794,242.7,2.425,0.202,7.798,103.019,7.006,7.97,62.45,0,109.9,13.5,7.78,204.7
"2010-10-19 00:55:30",259612,5.688,255.3,10.11,1.181,11.75,103.0201,7.009,8.11,61.92,0,109.9,13.47,7.79,217.3
"2010-10-19 00:56:00",259613,5.168,252.4,8.99,1.316,10.35,103.0306,7.036,8.05,61.92,0,109.9,13.47,7.81,214.4
"2010-10-19 00:56:30",259614,5.158,252.9,6.186,1.194,10.93,103.0515,7.089,8.12,61.36,0,109.9,13.47,7.87,214.9
"2010-10-19 00:57:00",259615,5.895,260.9,7.139,1.116,11.71,103.0529,7.093,8.1,61.9,0,109.9,13.47,7.87,222.9
"2010-10-19 00:57:30",259616,5.433,260.8,6.734,1.32,10.24,103.047,7.078,8.12,62.89,0,109.9,13.47,7.85,222.8
"2010-10-19 00:58:00",259617,4.18,252.5,1.828,0.078,7.593,103.0215,7.013,7.91,62.85,0,109.9,13.51,7.79,214.5
"2010-10-19 00:58:30",259618,5.517,255.7,7.717,1.19,10.48,103.019,7.006,8.01,62.6,0,109.9,13.47,7.78,217.7
"2010-10-19 00:59:00",259619,5.669,253.7,7.274,1.14,11.47,103.019,7.006,8.06,62.06,0,109.9,13.47,7.78,215.7
"2010-10-19 00:59:30",259620,5.352,247.7,6.194,1.216,11.53,103.0348,7.047,8.1,61.35,0,109.9,13.47,7.82,209.7
"2010-10-19 01:00:00",259621,5.551,254.3,5.669,1.145,11.87,103.0529,7.093,8.17,61.21,0,109.9,13.47,7.87,216.3
"2010-10-19 01:00:30",259622,5.475,250,5.032,1.05,11.96,103.0574,7.104,8.13,60.85,0,109.9,13.47,7.88,212.0
"2010-10-19 01:01:00",259623,3.846,238.3,4.191,0.707,7.916,103.0829,7.169,7.943,60.34,0,109.9,13.47,7.95,200.3
"2010-10-19 01:01:30",259624,3.901,234.8,3.911,0.904,8.21,103.0868,7.179,7.973,60.06,0,109.9,13.47,7.96,196.8
"2010-10-19 01:02:00",259625,5.421,245.6,6.515,1.169,11.25,103.0868,7.179,8.2,60.37,0,109.9,13.47,7.96,207.6
"2010-10-19 01:02:30",259626,5.543,244.1,5.829,1.108,12.05,103.0868,7.179,8.19,60.28,0,109.9,13.47,7.96,206.1
"2010-10-19 01:03:00",259627,4.981,239.9,6.83,1.285,11.33,103.101,7.216,8.19,59.96,0,109.9,13.47,7.99,201.9
"2010-10-19 01:03:30",259628,5.433,246.5,5.223,1.106,11.72,103.1151,7.252,8.29,60.22,0,109.9,13.47,8.03,208.5
"2010-10-19 01:04:00",259629,4.235,243.3,5.038,0.977,8.87,103.1035,7.222,8.13,60.49,0,109.9,13.47,8.00,205.3
"2010-10-19 01:04:30",259630,3.792,239.6,1.628,0.079,7.663,103.0882,7.183,8.05,60.3,0,109.9,13.51,7.96,201.6
"2010-10-19 01:05:00",259631,4.906,244,7.607,1.307,9.79,103.0868,7.179,8.22,60.44,0,109.9,13.47,7.96,206.0
"2010-10-19 01:05:30",259632,5.418,244.6,7.047,1.285,10.79,103.0868,7.179,8.25,60.8,0,109.9,13.47,7.96,206.6
"2010-10-19 01:06:00",259633,5.581,246.6,6.456,1.235,11.68,103.0868,7.179,8.3,61.08,0,109.9,13.47,7.96,208.6
"2010-10-19 01:06:30",259634,5.648,243.4,6.735,1.205,11.38,103.0868,7.179,8.23,60.8,0,109.9,13.47,7.96,205.4
"2010-10-19 01:07:00",259635,5.941,240.6,5.988,1.046,11.7,103.0865,7.179,8.19,60.53,0,109.9,13.47,7.96,202.6
"2010-10-19 01:07:30",259636,3.879,227.6,0.966,0.065,7.797,103.0868,7.179,8.01,60.17,0,109.9,13.5,7.96,189.6
"2010-10-19 01:08:00",259637,4.756,231.2,5.969,1.253,9.86,103.0868,7.179,8.15,60.14,0,109.9,13.47,7.96,193.2
"2010-10-19 01:08:30",259638,5.625,231.7,6.515,1.237,11.33,103.0868,7.179,8.21,60.06,0,109.9,13.47,7.96,193.7
"2010-10-19 01:09:00",259639,5.108,228.3,6.625,1.244,10.63,103.0868,7.179,8.22,59.94,0,109.9,13.47,7.96,190.3
"2010-10-19 01:09:30",259640,6.135,231.1,5.003,0.963,12.93,103.0868,7.179,8.3,59.92,0,109.9,13.47,7.96,193.1
"2010-10-19 01:10:00",259641,5.458,228.6,6.171,1.278,10.97,103.0916,7.192,8.27,59.72,0,109.9,13.47,7.97,190.6
"2010-10-19 01:10:30",259642,4.48,228.1,5.94,1.026,9.18,103.0953,7.201,8.16,59.74,0,109.9,13.47,7.98,190.1
"2010-10-19 01:11:00",259643,4.938,229.6,5.753,1.232,9.7,103.0916,7.192,8.21,59.82,0,109.9,13.47,7.97,191.6
"2010-10-19 01:11:30",259644,5.063,227.5,6.049,1.217,9.92,103.0928,7.195,8.22,59.75,0,109.9,13.47,7.97,189.5
"2010-10-19 01:12:00",259645,5.432,230.2,7.023,1.294,11.19,103.0933,7.196,8.26,59.76,0,109.9,13.47,7.97,192.2
"2010-10-19 01:12:30",259646,6.341,235,4.05,0.881,13.06,103.0967,7.205,8.31,59.73,0,109.9,13.47,7.98,197.0
"2010-10-19 01:13:00",259647,5.934,232.9,4.903,1.16,11.81,103.1032,7.221,8.28,59.61,0,109.9,13.47,8.00,194.9
"2010-10-19 01:13:30",259648,4.567,224.4,5.061,0.884,9.2,103.1117,7.243,8.21,59.4,0,109.9,13.47,8.02,186.4
"2010-10-19 01:14:00",259649,5.274,225.2,5.717,1.291,9.93,103.1182,7.26,8.19,59.37,0,109.9,13.47,8.04,187.2
"2010-10-19 01:14:30",259650,5.218,223.6,7.094,1.364,10.06,103.1208,7.266,8.24,59.43,0,109.9,13.47,8.04,185.6
"2010-10-19 01:15:00",259651,5.351,223.2,5.92,1.244,10.31,103.1208,7.266,8.18,59.25,0,109.9,13.47,8.04,185.2
"2010-10-19 01:15:30",259652,5.599,226.7,6.518,1.245,11.49,103.1208,7.266,8.37,59.4,0,109.9,13.48,8.04,188.7
"2010-10-19 01:16:00",259653,6.458,232.3,4.3,0.959,12.74,103.1225,7.271,8.39,59.33,0,109.9,13.48,8.05,194.3
"2010-10-19 01:16:30",259654,6.128,230.2,5.859,1.117,11.49,103.1287,7.286,8.3,59.41,0,109.9,13.48,8.06,192.2
"2010-10-19 01:17:00",259655,4.366,222.1,0.66,0.049,8.07,103.1363,7.306,8.2,59.42,0,109.9,13.51,8.08,184.1
"2010-10-19 01:17:30",259656,5.567,226.7,6.822,1.303,10.15,103.1388,7.312,8.22,59.5,0,109.9,13.48,8.09,188.7
"2010-10-19 01:18:00",259657,4.724,224.5,6.452,0.857,9.87,103.1377,7.31,8.42,59.72,0,109.9,13.48,8.09,186.5
"2010-10-19 01:18:30",259658,6.414,232.3,5.923,1.173,12.43,103.1374,7.309,8.3,60.05,0,109.9,13.48,8.09,194.3
"2010-10-19 01:19:00",259659,6.858,236.2,4.868,0.876,13.02,103.1321,7.295,8.46,60.3,0,109.9,13.48,8.07,198.2
"2010-10-19 01:19:30",259660,6.427,235.2,6.501,1.191,11.64,103.1258,7.279,8.32,60.58,0,109.9,13.48,8.06,197.2
"2010-10-19 01:20:00",259661,5.435,230.2,5.087,1.016,9.09,103.1445,7.327,8.23,60.68,0,109.9,13.48,8.10,192.2
"2010-10-19 01:20:30",259662,6.041,233.1,6.822,1.251,10.2,103.1544,7.352,8.31,60.7,0,109.9,13.48,8.13,195.1
"2010-10-19 01:21:00",259663,5.197,230.5,4.92,0.866,9.09,103.1547,7.353,8.21,60.67,0,109.9,13.48,8.13,192.5
"2010-10-19 01:21:30",259664,5.884,233.3,6.376,1.27,10.62,103.1547,7.353,8.28,60.63,0,109.9,13.48,8.13,195.3
"2010-10-19 01:22:00",259665,7.002,238.7,4.543,1.06,12.8,103.1547,7.353,8.49,60.96,0,109.9,13.48,8.13,200.7
"2010-10-19 01:22:30",259666,6.949,236.5,6.025,1.064,12.38,103.1547,7.353,8.46,61,0,109.9,13.48,8.13,198.5
"2010-10-19 01:23:00",259667,6.616,237.2,6.425,1.216,11.99,103.1547,7.353,8.44,60.91,0,109.9,13.47,8.13,199.2
"2010-10-19 01:23:30",259668,5.429,229.8,4.862,0.939,8.95,103.1547,7.353,8.32,60.84,0,109.9,13.47,8.13,191.8
"2010-10-19 01:24:00",259669,5.845,232.5,6,1.083,9.63,103.1547,7.353,8.23,61.07,0,109.9,13.47,8.13,194.5
"2010-10-19 01:24:30",259670,6.563,239.2,6.14,1.308,11.79,103.1547,7.353,8.39,61.28,0,109.9,13.47,8.13,201.2
"2010-10-19 01:25:00",259671,7.386,240.5,5.746,0.989,13.04,103.1547,7.353,8.51,61.61,0,109.9,13.47,8.13,202.5
"2010-10-19 01:25:30",259672,7.741,241.1,3.708,0.689,13.42,103.1547,7.353,8.53,61.82,0,109.9,13.47,8.13,203.1
"2010-10-19 01:26:00",259673,6.735,237.2,6.687,1.364,11.51,103.1547,7.353,8.43,62.09,0,109.9,13.46,8.13,199.2
"2010-10-19 01:26:30",259674,6.447,236.6,6.262,1.42,10.15,103.1547,7.353,8.36,62.19,0,109.9,13.46,8.13,198.6
"2010-10-19 01:27:00",259675,4.977,230.2,1.991,0.172,8.18,103.1547,7.353,8.22,61.41,0,109.9,13.5,8.13,192.2
"2010-10-19 01:27:30",259676,5.006,231.7,4.475,0.73,8.8,103.1547,7.353,8.21,61.16,0,109.9,13.47,8.13,193.7
"2010-10-19 01:28:00",259677,6.596,238.2,6.249,1.098,12.84,103.1547,7.353,8.52,61.1,0,109.9,13.47,8.13,200.2
"2010-10-19 01:28:30",259678,7.233,243.6,3.597,0.696,13.57,103.1547,7.353,8.53,61.44,0,109.9,13.47,8.13,205.6
"2010-10-19 01:29:00",259679,7.123,246.8,4.701,1.024,12.48,103.1547,7.353,8.46,61.99,0,109.9,13.47,8.13,208.8
"2010-10-19 01:29:30",259680,6.231,240.7,6.624,1.259,10.1,103.1547,7.353,8.29,62.12,0,109.9,13.47,8.13,202.7
"2010-10-19 01:30:00",259681,5.181,236.1,0.911,0.045,7.992,103.1547,7.353,8.24,62.13,0,109.9,13.51,8.13,198.1
"2010-10-19 01:30:30",259682,5.828,236.5,8.09,1.112,9.95,103.1547,7.353,8.32,61.76,0,109.9,13.47,8.13,198.5
"2010-10-19 01:31:00",259683,7.049,243.9,7.16,1.19,12.19,103.1547,7.353,8.45,61.86,0,109.9,13.47,8.13,205.9
"2010-10-19 01:31:30",259684,7.702,248.8,4.572,0.658,13.45,103.1547,7.353,8.53,62.38,0,109.9,13.47,8.13,210.8
"2010-10-19 01:32:00",259685,7.68,250.1,4.267,0.753,13.07,103.1547,7.353,8.46,62.43,0,109.9,13.47,8.13,212.1
"2010-10-19 01:32:30",259686,6.011,242.2,5.455,1.088,9.74,103.1547,7.353,8.35,62.65,0,109.9,13.47,8.13,204.2
"2010-10-19 01:33:00",259687,5.342,238.3,1.098,0.062,7.967,103.1547,7.353,8.25,62.5,0,109.9,13.51,8.13,200.3
"2010-10-19 01:33:30",259688,5.312,236.9,1.065,0.084,8.15,103.1547,7.353,8.28,62.45,0,109.9,13.51,8.13,198.9
"2010-10-19 01:34:00",259689,7.018,246.3,5.904,1.201,12.06,103.1555,7.355,8.45,62.51,0,109.9,13.47,8.13,208.3
"2010-10-19 01:34:30",259690,7.58,246.3,4.572,0.935,13.26,103.1657,7.381,8.48,62.2,0,109.9,13.47,8.16,208.3
"2010-10-19 01:35:00",259691,7.681,247.5,3.99,0.693,13.43,103.1719,7.397,8.53,62.24,0,109.9,13.47,8.17,209.5
"2010-10-19 01:35:30",259692,7.07,243.3,6.456,1.158,11.07,103.1855,7.432,8.42,61.98,0,109.9,13.47,8.21,205.3
"2010-10-19 01:36:00",259693,5.308,234.5,0.815,0.058,8,103.1886,7.44,8.25,61.55,0,109.9,13.51,8.22,196.5
"2010-10-19 01:36:30",259694,5.34,235,0.466,0.047,8.08,103.1886,7.44,8.27,61.11,0,109.9,13.51,8.22,197.0
"2010-10-19 01:37:00",259695,6.171,238.6,6.442,1.171,10.25,103.1951,7.456,8.37,60.76,0,109.9,13.47,8.23,200.6
"2010-10-19 01:37:30",259696,7.229,242.5,5.64,1.147,12.81,103.2186,7.516,8.56,60.61,0,109.9,13.47,8.29,204.5
"2010-10-19 01:38:00",259697,7.567,245,1.72,0.887,13.3,103.2225,7.526,8.65,60.43,0,109.9,13.47,8.30,207.0
"2010-10-19 01:38:30",259698,7.147,242.1,5.86,1.109,11.97,103.2307,7.547,8.58,60.16,0,109.9,13.47,8.33,204.1
"2010-10-19 01:39:00",259699,5.725,235.6,5.375,1.044,9.32,103.2533,7.605,8.5,60.17,0,109.9,13.47,8.38,197.6
"2010-10-19 01:39:30",259700,5.228,232.5,0.27,0.08,8.16,103.2564,7.613,8.4,59.93,0,109.9,13.5,8.39,194.5
"2010-10-19 01:40:00",259701,5.772,235.1,5.272,0.891,9.23,103.2564,7.613,8.5,59.96,0,109.9,13.47,8.39,197.1
"2010-10-19 01:40:30",259702,7.11,243.6,5.707,1.201,12.54,103.2564,7.613,8.67,60.08,0,109.9,13.47,8.39,205.6
"2010-10-19 01:41:00",259703,7.593,246.3,3.823,0.708,13.53,103.2564,7.613,8.76,60.16,0,109.9,13.47,8.39,208.3
"2010-10-19 01:41:30",259704,7.067,244.2,5.446,1.162,12.1,103.2564,7.613,8.65,60.29,0,109.9,13.46,8.39,206.2
"2010-10-19 01:42:00",259705,6.276,239,6.361,1.252,9.93,103.2564,7.613,8.54,60.21,0,109.9,13.46,8.39,201.0
"2010-10-19 01:42:30",259706,5.331,235.6,0.404,0.051,7.991,103.2564,7.613,8.43,60.37,0,109.9,13.5,8.39,197.6
"2010-10-19 01:43:00",259707,5.904,237.4,5.131,1.032,8.95,103.2564,7.613,8.44,60.43,0,109.9,13.46,8.39,199.4
"2010-10-19 01:43:30",259708,7.149,243.3,6.765,1.234,12.09,103.2564,7.613,8.63,60.62,0,109.9,13.47,8.39,205.3
"2010-10-19 01:44:00",259709,7.118,246.1,5.421,1.129,13.07,103.2564,7.613,8.73,60.82,0,109.9,13.47,8.39,208.1
"2010-10-19 01:44:30",259710,7.22,245.7,4.963,1.112,12.79,103.2564,7.613,8.71,60.51,0,109.9,13.47,8.39,207.7
"2010-10-19 01:45:00",259711,6.701,241.7,6.366,1.286,10.82,103.2564,7.613,8.66,60.3,0,109.9,13.47,8.39,203.7
"2010-10-19 01:45:30",259712,5.307,234.8,0.951,0.04,8.22,103.2564,7.613,8.46,59.98,0,109.9,13.51,8.39,196.8
"2010-10-19 01:46:00",259713,5.339,235.3,0.514,0.043,8.39,103.2646,7.634,8.48,59.9,0,109.9,13.51,8.41,197.3
"2010-10-19 01:46:30",259714,6.61,241.3,6.684,1.299,11.55,103.2873,7.692,8.7,60.11,0,109.9,13.48,8.47,203.3
"2010-10-19 01:47:00",259715,7.136,242.2,5.867,1.239,12.15,103.2901,7.699,8.75,60.14,0,109.9,13.48,8.48,204.2
"2010-10-19 01:47:30",259716,7.649,244.7,3.654,0.919,13,103.2901,7.699,8.85,60.17,0,109.9,13.47,8.48,206.7
"2010-10-19 01:48:00",259717,7.41,241,5.935,1.047,12.14,103.2901,7.699,8.69,59.98,0,109.9,13.47,8.48,203.0
"2010-10-19 01:48:30",259718,5.383,231.7,0.437,0.045,8.37,103.2901,7.699,8.59,59.79,0,109.9,13.5,8.48,193.7
"2010-10-19 01:49:00",259719,5.754,232.9,4.533,0.983,9.08,103.2901,7.699,8.53,59.21,0,109.9,13.47,8.48,194.9
"2010-10-19 01:49:30",259720,5.886,234.9,6.263,1.159,10.38,103.3016,7.728,8.69,59.62,0,109.9,13.47,8.51,196.9